Theta_e
313 320 322 320 325 325 328 329 319 319 318 311 311 314 315 310 317 329 305 305 305 305 305 304 309 313 314 314 315 315 315 316 317 317 317 317 317 317 317 318 318 318 320 323 327 329 332 334 334
318 319 321 318 326 329 329 324 321 318 312 310 310 311 311 309 306 306 306 305 305 304 304 303 308 313 313 314 314 314 316 316 316 316 316 316 316 316 316 316 316 317 317 318 319 323 328 331 331
317 315 317 321 319 327 329 324 318 312 311 312 309 307 308 307 305 304 304 304 304 304 303 303 309 311 312 313 313 313 314 314 314 314 315 315 315 315 315 315 315 316 316 316 317 318 319 323 327
316 311 308 315 316 312 322 319 313 312 311 309 308 308 305 304 304 304 304 304 303 303 303 304 307 309 310 311 311 312 312 312 313 313 313 313 313 313 314 313 314 314 314 315 316 316 316 317 321
313 309 314 312 312 310 316 317 313 315 313 311 309 308 305 303 303 303 303 303 303 303 303 304 304 305 307 309 310 311 311 311 312 312 312 312 311 311 311 311 311 312 313 314 314 315 315 315 315
314 311 318 318 312 308 312 313 313 312 310 308 308 306 305 303 303 303 303 302 302 303 304 304 304 305 305 307 308 309 310 310 310 310 309 309 309 309 309 309 310 311 312 311 311 312 312 313 314
314 313 313 310 311 311 310 310 312 311 309 309 305 307 304 302 302 303 302 302 303 303 304 304 304 304 304 304 305 307 308 308 308 307 307 306 306 307 308 306 309 311 310 310 310 310 310 311 313
307 307 308 308 310 313 305 307 307 309 307 303 303 307 305 302 302 302 302 302 303 303 303 304 304 304 304 304 304 304 305 305 305 306 307 307 307 307 307 307 308 309 310 310 310 310 310 310 310
305 312 312 311 308 311 303 308 303 302 304 303 302 302 301 302 302 302 302 302 303 303 303 303 304 304 304 304 305 305 305 306 307 307 307 309 308 308 306 307 307 308 308 309 309 310 311 311 312
309 313 313 307 305 307 303 307 305 305 304 304 303 300 301 301 302 301 301 301 302 302 302 303 303 304 304 305 305 305 306 306 306 307 307 308 308 306 304 305 306 307 308 308 309 310 313 315 316
306 312 305 305 304 303 303 304 303 304 305 303 304 302 300 300 301 301 301 301 301 301 302 303 304 304 304 305 305 305 305 306 306 307 307 307 306 305 303 304 304 305 307 309 311 311 313 315 318
308 304 304 304 303 303 304 302 304 302 305 301 301 300 299 300 300 301 301 301 301 301 302 303 304 304 304 305 305 304 305 305 306 306 305 304 303 300 300 301 303 304 306 309 310 310 310 314 318
306 304 303 302 302 302 301 304 304 302 300 299 299 300 299 299 300 301 301 301 301 301 302 303 304 304 304 304 303 303 301 301 301 301 299 299 299 298 298 298 300 302 305 307 307 306 309 313 316
302 302 302 302 303 302 305 304 304 301 298 299 300 299 298 299 300 300 301 301 301 301 302 303 304 303 303 301 300 298 298 297 297 295 294 294 294 294 294 294 295 299 302 303 303 303 304 308 315
301 305 303 303 303 303 303 303 303 300 299 299 299 298 298 299 300 300 301 301 301 301 302 303 303 302 301 299 297 296 294 294 293 292 292 292 292 292 292 292 292 292 297 300 300 300 301 307 312
302 299 303 301 302 302 302 302 298 298 299 300 299 297 298 299 300 300 301 301 301 302 303 303 302 300 298 296 294 293 292 292 292 291 291 290 290 290 289 289 289 289 293 294 296 295 297 304 308
299 300 301 300 301 302 301 302 299 298 299 300 298 297 297 298 299 300 301 301 300 301 302 303 301 298 295 293 292 292 291 291 289 289 288 288 288 288 288 288 288 289 289 291 292 293 294 297 305
301 302 300 301 302 302 302 301 298 299 299 300 299 297 297 298 299 300 300 301 300 300 301 301 301 297 295 293 292 291 290 288 288 288 288 288 288 288 288 288 288 288 289 289 290 291 292 292 299
298 300 301 300 301 302 300 300 301 298 299 300 299 299 298 297 298 300 300 300 299 298 298 300 300 299 298 294 294 292 288 287 287 287 287 287 288 288 288 287 288 287 287 287 289 290 290 291 293
301 302 302 303 302 302 301 303 301 300 299 300 301 300 299 297 297 298 299 299 299 298 297 297 299 298 298 295 293 291 288 287 287 287 287 286 287 287 287 287 287 287 287 287 287 288 289 290 290
302 302 301 301 303 301 301 302 301 301 299 300 300 300 299 298 298 298 297 299 298 297 295 295 295 294 294 293 292 290 288 287 287 286 286 286 286 286 286 286 286 287 286 286 286 286 287 288 288
303 301 301 304 303 304 300 307 302 303 302 301 300 299 298 297 298 298 297 298 298 296 294 293 293 293 292 292 290 289 288 287 285 285 285 285 286 286 286 285 286 285 286 286 285 285 285 287 287
303 304 304 304 303 303 304 304 306 304 308 304 301 300 297 297 298 298 298 298 297 295 294 293 293 292 291 290 288 288 287 286 285 285 285 285 285 285 285 285 285 285 285 285 285 286 286 286 285
303 305 303 301 304 310 307 307 316 313 307 302 301 299 297 296 298 298 297 298 295 294 293 293 292 291 290 289 288 288 287 286 285 285 285 285 285 284 284 285 285 284 284 284 284 284 285 284 283
304 305 309 312 310 314 301 305 312 305 302 302 301 299 296 297 297 297 296 294 294 293 293 292 292 290 289 288 287 287 287 286 285 285 284 284 284 284 284 285 285 284 284 284 284 284 284 283 282
304 306 310 312 315 310 302 310 314 302 300 300 298 297 297 297 297 297 296 294 293 293 293 292 291 290 288 287 287 286 286 286 285 284 284 284 284 284 284 284 285 285 284 284 283 284 283 283 282
305 305 306 305 293 309 310 309 309 303 300 300 300 298 298 297 297 296 295 294 294 294 293 292 291 289 288 287 287 286 286 285 285 285 284 283 283 283 284 284 285 285 284 284 283 283 284 284 283
304 302 307 305 309 311 311 307 312 305 302 300 299 300 298 296 296 296 295 294 294 294 293 292 291 289 288 287 287 286 285 285 285 285 284 284 284 283 284 284 285 284 284 284 283 283 283 284 283
304 304 304 305 308 312 312 312 301 302 301 302 300 300 298 297 297 296 295 294 295 294 294 292 290 289 288 287 286 286 285 285 285 285 284 283 284 283 284 284 284 284 284 283 283 283 283 283 283
303 304 305 311 310 304 307 312 302 299 300 301 301 299 297 296 296 295 295 294 293 294 293 292 290 289 287 287 287 286 285 285 285 284 284 283 284 283 284 284 284 283 283 283 282 282 282 282 282
Wind_Speed
4 2 2 4 3 4 1 1 1 3 2 1 2 3 6 5 2 1 5 7 6 9 14 17 18 17 16 16 16 16 16 16 16 17 17 17 17 18 18 19 19 19 19 19 19 20 21 21 19
2 1 3 2 4 2 1 0 3 1 5 5 4 3 5 3 2 4 2 5 6 11 15 18 17 16 16 15 14 16 16 15 15 15 16 17 18 18 18 18 18 19 19 20 20 21 21 21 20
2 2 3 4 3 3 3 3 5 3 3 3 4 4 1 2 3 2 3 3 7 12 16 16 14 15 14 14 16 15 16 15 15 16 16 17 18 18 19 19 19 19 19 20 20 20 20 22 21
1 5 4 4 3 1 1 2 4 6 3 4 3 5 3 2 2 4 4 4 9 13 15 15 13 13 14 14 15 14 14 14 14 15 17 18 19 19 19 20 20 19 19 20 20 21 22 21 21
4 3 4 4 1 1 1 2 5 4 2 3 1 4 3 2 9 6 4 6 10 13 15 15 14 14 13 14 14 14 14 14 15 15 17 18 18 18 19 19 20 20 20 21 21 21 21 22 22
3 3 4 2 1 1 1 3 3 2 2 2 3 5 3 5 5 5 5 8 11 14 15 14 13 12 11 11 13 13 13 13 15 15 16 16 17 18 18 20 19 20 20 20 20 21 21 22 22
5 4 3 4 5 1 5 5 4 4 3 1 6 4 2 5 7 5 5 8 11 12 13 13 12 10 9 10 12 12 12 14 15 16 18 18 19 19 19 20 21 22 22 21 22 21 22 21 21
4 4 4 2 4 4 5 4 1 2 2 3 1 3 2 4 8 3 2 8 11 12 13 14 12 10 9 13 14 14 13 15 17 21 22 23 24 24 23 21 23 22 22 22 21 20 19 20 22
3 4 2 5 6 2 4 4 1 1 5 1 1 2 2 13 8 3 1 6 10 13 14 13 12 12 11 14 14 14 17 18 20 23 22 23 23 23 24 24 24 23 22 22 20 18 19 22 22
4 4 7 4 4 3 4 2 7 4 2 1 1 3 8 8 6 3 4 8 12 13 13 13 12 13 13 14 13 15 18 20 22 24 24 23 23 23 22 22 22 23 24 23 21 22 21 21 23
1 4 3 2 1 3 6 2 2 5 3 6 6 8 10 7 5 4 4 7 8 9 10 12 12 12 13 14 14 17 19 20 23 24 24 23 22 22 24 22 22 23 24 26 27 28 26 22 21
5 2 1 1 4 4 5 6 3 6 3 1 5 12 8 7 5 4 4 5 6 7 8 10 12 12 13 14 17 19 21 22 23 22 22 23 24 23 20 21 24 23 23 25 26 25 23 23 21
4 3 3 2 4 4 6 0 5 6 4 3 9 9 7 8 6 4 3 4 4 6 8 10 11 12 13 16 18 19 20 21 21 21 22 24 24 24 24 25 24 23 23 24 24 26 25 23 23
3 4 3 1 2 2 2 1 1 2 4 5 7 7 6 7 7 4 2 2 4 5 7 9 11 12 12 15 15 16 18 19 20 22 23 24 25 25 26 27 28 26 25 24 23 23 24 24 21
4 4 2 1 0 2 0 5 7 2 4 7 6 5 5 7 7 5 3 2 4 5 7 8 10 10 11 14 15 17 18 19 21 22 23 24 25 25 26 27 28 28 27 26 27 28 27 26 26
4 5 1 1 2 2 2 8 2 2 7 8 7 6 6 6 8 7 5 4 5 6 7 8 8 9 11 13 14 16 17 18 20 22 22 24 24 24 25 27 28 28 28 28 28 31 28 26 28
6 3 3 4 3 2 3 7 1 3 5 7 8 8 7 6 8 10 9 7 5 5 6 7 7 9 11 12 14 15 16 18 20 21 22 23 24 25 27 28 29 30 31 30 28 29 28 24 23
6 3 3 3 2 1 2 14 7 4 7 11 10 10 10 10 10 15 12 9 7 5 6 7 8 9 8 8 11 13 15 18 19 21 23 23 25 25 27 28 30 31 33 33 31 28 29 25 14
7 4 3 2 1 3 5 9 16 7 7 12 14 14 15 12 10 15 14 12 9 6 6 7 7 8 5 3 2 6 15 15 18 21 22 22 23 25 26 28 30 30 32 30 30 26 28 37 23
4 4 4 2 2 3 4 13 12 8 8 12 18 15 14 8 8 16 17 14 11 9 7 7 7 6 6 4 4 6 6 13 16 18 20 21 23 25 26 28 29 30 30 31 31 28 20 24 34
3 5 4 3 2 1 5 8 5 5 6 5 3 3 9 14 14 12 18 18 13 11 9 9 9 8 7 6 5 5 6 7 12 18 19 20 22 23 25 26 28 29 31 30 27 25 21 15 23
4 4 5 6 3 3 3 5 6 6 9 6 3 7 9 13 13 15 18 21 18 15 12 10 9 8 8 7 4 6 6 6 11 14 16 18 20 22 23 25 27 28 29 31 25 25 21 18 18
3 3 5 4 4 3 3 2 8 5 6 5 6 5 7 12 16 16 22 25 21 18 16 13 11 9 8 8 7 10 13 12 11 12 14 17 19 21 22 24 25 26 27 28 28 28 27 24 18
7 6 6 5 3 2 1 3 6 2 1 6 4 7 5 7 9 14 17 24 22 18 16 14 13 11 9 9 9 9 13 13 11 12 14 17 18 20 21 23 23 23 24 26 26 25 26 22 19
1 5 1 3 2 4 2 3 10 4 6 2 8 9 2 4 7 10 15 18 24 23 20 17 15 13 11 10 10 9 12 11 11 12 14 15 17 18 19 21 22 22 22 24 25 24 26 23 19
4 4 5 6 3 3 3 5 5 4 3 2 3 3 4 4 4 7 16 20 24 27 24 21 18 16 14 13 12 10 11 10 10 12 13 15 16 16 16 20 21 21 20 23 25 25 24 24 21
4 3 2 7 3 3 2 6 5 2 5 5 5 2 3 6 8 9 13 19 25 27 26 22 20 17 16 15 14 13 12 12 11 11 10 11 14 15 16 18 20 22 22 23 24 25 25 25 24
1 3 3 2 3 3 3 5 4 3 5 7 5 0 5 5 7 10 18 21 23 27 26 22 21 20 18 16 15 15 14 13 12 12 12 13 13 13 15 18 19 22 22 22 23 25 24 25 23
1 1 4 3 3 4 3 5 5 5 0 2 4 4 7 9 10 10 17 22 28 29 27 24 22 20 20 19 16 16 15 15 13 12 13 13 14 13 13 16 19 22 22 21 23 24 24 25 24
1 3 5 3 5 1 2 5 4 4 1 1 5 6 6 7 7 7 14 19 23 28 30 28 25 23 22 20 19 16 15 15 14 14 13 13 14 13 14 15 18 19 20 20 22 22 23 25 24
Wind_Direction
353 36 99 41 64 70 88 189 16 124 126 327 331 55 109 60 51 128 123 37 9 346 347 348 353 354 355 356 1 355 354 356 353 348 349 346 345 341 338 335 333 332 329 323 320 311 312 317 306
21 63 63 79 82 72 183 276 140 67 132 121 61 57 36 81 75 104 150 18 356 348 348 349 357 1 3 4 2 358 358 358 355 353 351 350 347 345 341 338 337 332 328 325 323 316 316 314 319
94 68 76 85 95 127 159 178 140 122 109 178 121 54 78 93 74 88 93 9 344 346 353 355 1 4 5 7 3 359 359 1 358 357 356 355 353 353 349 344 341 338 334 329 325 320 313 311 312
152 28 46 75 72 289 170 171 134 140 189 65 112 83 84 57 113 129 116 17 355 358 357 0 8 7 13 9 3 359 358 1 357 356 353 353 355 352 350 349 347 343 337 330 324 320 316 314 307
54 61 64 80 113 260 253 172 149 152 111 75 296 147 123 67 118 116 67 15 7 3 4 8 12 12 15 16 7 8 7 3 359 357 356 357 356 355 353 353 350 346 341 337 332 327 324 313 306
49 92 62 122 206 291 149 179 110 52 58 136 77 117 156 150 149 112 52 23 12 8 9 9 13 23 29 16 8 7 10 10 8 9 9 8 8 7 4 1 355 350 347 343 338 330 321 316 308
108 79 133 129 162 199 203 160 162 154 143 175 137 136 151 165 149 110 55 25 16 18 17 19 25 43 41 31 16 17 23 21 19 15 14 15 15 11 7 4 0 359 354 349 345 338 331 324 313
103 91 109 174 184 209 178 126 95 139 161 117 310 182 210 178 162 151 39 23 24 25 25 27 38 39 39 35 34 42 25 25 30 30 31 28 28 29 23 10 1 0 359 356 352 350 343 331 319
128 68 144 197 160 202 166 145 88 105 114 81 39 112 117 140 155 168 293 8 24 27 25 29 35 38 39 40 39 42 41 41 38 34 33 29 30 28 16 14 13 2 2 350 349 343 342 351 346
76 105 205 181 182 170 181 165 164 144 114 206 92 90 138 151 162 137 35 18 20 19 24 30 36 40 43 46 44 46 46 45 41 34 32 28 28 27 15 7 5 8 10 4 350 359 7 15 8
50 141 151 154 186 129 155 124 141 129 233 213 198 177 170 156 136 102 58 33 18 16 27 35 44 47 48 47 47 44 45 43 42 38 34 30 28 23 23 7 5 18 22 22 23 16 18 21 18
84 76 81 131 122 117 164 123 180 189 218 79 205 160 161 154 153 127 63 38 22 24 39 48 52 54 52 52 51 50 49 47 46 39 37 34 28 23 15 16 23 24 25 23 23 11 15 25 30
82 149 63 71 112 95 127 138 234 240 212 101 129 140 150 158 156 124 85 49 29 33 50 54 55 57 53 57 57 54 49 48 47 44 40 37 31 28 26 24 22 21 24 25 19 19 24 30 34
96 81 83 62 116 111 143 215 48 335 114 120 147 158 157 164 168 145 110 61 40 47 70 67 64 60 59 56 51 52 53 51 49 46 42 44 39 35 33 31 29 29 27 26 24 19 23 33 40
110 83 84 64 96 64 278 281 236 140 130 152 166 164 172 188 178 169 145 104 61 70 83 86 80 64 62 58 57 56 55 55 52 49 44 45 42 38 38 34 33 32 35 34 30 30 30 37 46
70 54 87 302 138 7 90 268 22 146 150 187 191 201 201 197 191 172 160 138 102 97 102 100 92 72 70 65 60 60 54 53 50 47 45 44 44 41 42 41 36 35 38 38 37 31 29 40 55
13 180 199 310 203 116 144 265 132 145 179 218 218 215 213 205 193 186 174 161 134 114 115 118 108 100 81 74 67 56 52 49 50 50 49 50 50 49 48 47 45 43 45 45 39 36 31 34 61
184 201 231 243 201 77 192 267 258 199 197 227 225 221 219 208 203 189 180 173 158 134 128 133 131 124 97 83 65 51 52 50 52 55 53 52 52 51 52 49 46 44 46 45 45 40 38 32 44
132 156 184 169 153 178 238 270 279 220 222 233 230 220 217 210 198 187 183 179 167 149 144 148 150 159 143 140 11 33 46 53 55 56 54 53 55 55 52 52 49 47 47 47 47 42 33 31 39
133 140 193 119 108 175 336 281 262 235 230 215 224 219 210 173 164 181 185 184 178 166 157 152 155 158 154 139 102 80 66 60 58 57 57 55 55 56 55 55 53 51 51 50 51 46 41 37 35
172 170 172 164 125 115 326 293 316 275 264 249 326 251 197 189 176 179 182 187 183 174 163 153 145 142 139 137 133 107 93 76 64 58 59 56 58 60 60 60 59 57 56 52 50 49 48 42 44
190 189 130 128 103 240 11 281 301 279 289 9 331 209 191 175 177 175 177 184 184 175 170 161 147 139 131 125 155 141 135 103 69 64 63 62 62 63 65 64 63 61 61 60 53 55 51 52 44
186 102 105 96 102 75 338 53 269 360 314 6 349 324 210 188 180 177 180 181 181 176 171 167 159 148 141 132 132 127 113 102 93 81 74 70 67 66 67 67 66 65 64 65 63 61 59 58 56
151 79 53 53 93 26 286 132 283 237 324 321 324 314 252 186 180 174 170 173 171 171 171 166 163 152 149 141 139 134 119 113 104 90 78 74 72 70 71 72 69 68 68 69 67 63 64 59 60
134 105 349 355 25 212 169 76 249 327 301 280 312 321 244 173 156 157 158 163 170 174 175 173 171 156 152 146 142 140 124 119 105 93 86 81 76 72 73 74 71 71 73 72 70 64 62 55 53
176 175 163 198 186 175 123 226 254 274 328 55 16 8 108 136 149 172 173 173 175 179 179 179 172 164 159 152 140 132 120 114 101 93 89 88 85 80 80 78 75 75 78 73 71 67 63 61 57
185 187 133 101 22 78 241 279 314 320 40 26 25 53 171 178 169 171 177 179 180 184 185 184 177 171 167 160 150 142 134 125 119 109 94 88 90 88 82 79 78 78 80 75 73 70 67 65 62
194 154 79 2 151 236 289 285 232 262 339 2 4 283 229 211 192 181 178 180 187 190 189 188 185 178 172 166 161 153 146 137 130 121 112 108 99 95 89 85 84 84 81 78 74 72 69 68 64
147 182 54 108 141 159 149 258 206 202 17 335 316 216 220 215 208 197 187 182 187 192 192 190 187 182 179 172 168 163 155 145 141 133 123 120 115 107 96 91 91 87 83 79 76 72 70 68 64
261 224 176 138 196 94 110 276 182 217 109 227 273 248 238 227 210 191 186 179 182 188 191 193 190 189 187 180 174 172 166 156 150 141 136 129 124 118 108 101 96 90 85 79 75 73 69 68 64